OE3MAA Weather Reports


time (UTC)temp
C
wind
direction
speed
KPH
gust
KPH
rain 1hr
cm
rain 24hr
cm
rain mn
cm
humidity
%
barometer
mb
20260506191015 19 158 14.5 22.5 0.00 0.00 0.00 55 1003.3
20260506190037 20 158 12.9 20.9 0.00 0.00 0.00 54 1003.2
20260506185016 20 158 14.5 25.7 0.00 0.00 0.00 54 1003.0
20260506184016 20 158 14.5 29.0 0.00 0.00 0.00 53 1002.8
20260506183016 20 135 17.7 30.6 0.00 0.00 0.00 52 1002.6
20260506182015 20 158 16.1 27.4 0.00 0.00 0.00 51 1002.4
20260506181016 20 158 16.1 29.0 0.00 0.00 0.00 51 1002.2
20260506180015 21 158 16.1 25.7 0.00 0.00 0.00 51 1002.1
20260506175016 21 135 16.1 32.2 0.00 0.00 0.00 50 1002.1
20260506174016 21 158 14.5 24.1 0.00 0.00 0.00 50 1002.1
20260506173036 21 158 16.1 27.4 0.00 0.00 0.00 49 1002.2
20260506172015 22 135 16.1 30.6 0.00 0.00 0.00 49 1002.3
20260506171015 22 135 17.7 32.2 0.00 0.00 0.00 47 1002.2
20260506170015 22 135 14.5 22.5 0.00 0.00 0.00 48 1002.2
20260506165015 22 135 17.7 35.4 0.00 0.00 0.00 48 1002.2
20260506164016 22 135 19.3 29.0 0.00 0.00 0.00 48 1002.3
20260506163016 22 135 16.1 29.0 0.00 0.00 0.00 48 1002.4
20260506162016 22 158 14.5 24.1 0.00 0.00 0.00 48 1002.5
20260506161016 22 158 17.7 37.0 0.00 0.00 0.00 47 1002.6
20260506160016 23 158 22.5 40.2 0.00 0.00 0.00 45 1002.5
20260506155035 23 135 17.7 35.4 0.00 0.00 0.00 45 1002.6
20260506154015 23 135 19.3 38.6 0.00 0.00 0.00 44 1002.7
20260506153016 23 135 20.9 37.0 0.00 0.00 0.00 43 1002.8
20260506152015 23 135 19.3 40.2 0.00 0.00 0.00 43 1002.8
20260506151036 24 158 20.9 35.4 0.00 0.00 0.00 42 1002.9
20260506150015 25 135 22.5 41.8 0.00 0.00 0.00 41 1002.9
20260506145017 25 158 19.3 30.6 0.00 0.00 0.00 41 1002.9
20260506144015 25 135 19.3 37.0 0.00 0.00 0.00 41 1002.9
20260506143036 25 135 19.3 35.4 0.00 0.00 0.00 40 1002.9
20260506142036 25 135 20.9 40.2 0.00 0.00 0.00 40 1003.1
20260506141015 25 135 20.9 43.5 0.00 0.00 0.00 40 1003.3
20260506140036 25 135 19.3 37.0 0.00 0.00 0.00 39 1003.4
20260506135016 25 135 22.5 43.5 0.00 0.00 0.00 40 1003.6
20260506134015 25 135 19.3 33.8 0.00 0.00 0.00 41 1003.8
20260506133016 25 135 20.9 35.4 0.00 0.00 0.00 41 1003.8
20260506132037 24 135 20.9 35.4 0.00 0.00 0.00 43 1004.0
20260506131015 23 135 20.9 40.2 0.00 0.00 0.00 44 1004.1
20260506130016 22 135 16.1 30.6 0.00 0.00 0.00 46 1004.2
20260506125016 22 113 19.3 33.8 0.00 0.00 0.00 45 1004.3
20260506124016 22 135 19.3 33.8 0.00 0.00 0.00 47 1004.6
20260506123016 22 135 14.5 25.7 0.00 0.00 0.00 45 1004.7
20260506122017 22 135 14.5 30.6 0.00 0.00 0.00 47 1005.0
20260506121035 22 113 24.1 37.0 0.00 0.00 0.00 46 1005.1
20260506120016 23 135 20.9 40.2 0.00 0.00 0.00 45 1005.1
20260506115018 23 135 19.3 38.6 0.00 0.00 0.00 45 1005.1
20260506114036 24 135 19.3 38.6 0.00 0.00 0.00 44 1005.3
20260506113016 23 135 20.9 43.5 0.00 0.00 0.00 45 1005.4
20260506112036 23 135 22.5 37.0 0.00 0.00 0.00 47 1005.5
20260506111016 23 135 22.5 37.0 0.00 0.00 0.00 46 1005.7
20260506110016 23 135 19.3 32.2 0.00 0.00 0.00 47 1005.8
20260506105058 23 135 22.5 33.8 0.00 0.00 0.00 46 1005.9
20260506104016 23 135 19.3 33.8 0.00 0.00 0.00 44 1006.0
20260506103036 23 135 20.9 29.0 0.00 0.00 0.00 49 1006.0
20260506102016 23 135 19.3 30.6 0.00 0.00 0.00 48 1006.1
20260506101016 23 135 14.5 24.1 0.00 0.00 0.00 48 1006.2
20260506100036 22 113 14.5 27.4 0.00 0.00 0.00 49 1006.4
20260506095016 22 135 16.1 25.7 0.00 0.00 0.00 50 1006.5
20260506094016 22 135 14.5 22.5 0.00 0.00 0.00 52 1006.6
20260506093016 22 135 14.5 20.9 0.00 0.00 0.00 49 1006.8
20260506092016 22 113 11.3 22.5 0.00 0.00 0.00 51 1006.9
20260506091016 22 135 11.3 19.3 0.00 0.00 0.00 50 1006.8
20260506090016 22 113 11.3 24.1 0.00 0.00 0.00 49 1006.8
20260506084016 22 135 8.0 14.5 0.00 0.00 0.00 51 1007.0
20260506083016 21 0 4.8 17.7 0.00 0.00 0.00 53 1007.1
20260506082016 21 135 4.8 9.7 0.00 0.00 0.00 51 1007.2
20260506081036 21 293 3.2 9.7 0.00 0.00 0.00 53 1007.2
20260506073016 19 270 4.8 9.7 0.00 0.00 0.00 60 1007.3
20260506072016 18 315 4.8 9.7 0.00 0.00 0.00 62 1007.5
20260506071016 18 270 8.0 12.9 0.00 0.00 0.00 61 1007.5
20260506062056 16 270 6.4 11.3 0.00 0.00 0.00 68 1007.8
20260506061036 16 293 6.4 12.9 0.00 0.00 0.00 70 1007.7
20260506051016 15 270 9.7 19.3 0.00 0.00 0.00 73 1007.8
20260506045016 14 293 8.0 12.9 0.00 0.00 0.00 76 1007.6
20260506044016 14 293 8.0 12.9 0.00 0.00 0.00 76 1007.6
20260506042016 14 293 8.0 16.1 0.00 0.00 0.00 77 1007.4
20260506041016 13 293 8.0 14.5 0.00 0.00 0.00 78 1007.3
20260506040016 13 293 8.0 11.3 0.00 0.00 0.00 78 1007.1
20260506035036 13 293 8.0 11.3 0.00 0.00 0.00 79 1007.1
20260506034016 13 270 6.4 9.7 0.00 0.00 0.00 78 1007.1
20260506033016 14 270 6.4 9.7 0.00 0.00 0.00 78 1007.1
20260506032016 14 293 4.8 9.7 0.00 0.00 0.00 77 1007.0
20260506031016 14 270 4.8 11.3 0.00 0.00 0.00 77 1007.2
20260506030016 14 270 4.8 14.5 0.00 0.00 0.00 77 1007.1
20260506025036 14 270 4.8 12.9 0.00 0.00 0.00 77 1007.3
20260506024016 14 270 8.0 19.3 0.00 0.00 0.00 77 1007.3
20260506023017 14 248 4.8 12.9 0.00 0.00 0.00 77 1007.2
20260506022016 14 270 6.4 14.5 0.00 0.00 0.00 77 1007.1
20260506021016 14 270 6.4 12.9 0.00 0.00 0.00 77 1007.0
20260506020016 13 270 6.4 9.7 0.00 0.00 0.00 79 1007.0
20260506015016 13 293 6.4 9.7 0.00 0.00 0.00 79 1006.8
20260506014016 13 315 3.2 6.4 0.00 0.00 0.00 77 1006.7
20260506013036 13 293 3.2 6.4 0.00 0.00 0.00 77 1006.7
20260506012016 13 293 3.2 6.4 0.00 0.00 0.00 77 1006.6
20260506011017 14 315 1.6 4.8 0.00 0.00 0.00 76 1006.5
20260506010036 14 293 3.2 6.4 0.00 0.00 0.00 77 1006.4
20260506005016 13 270 3.2 8.0 0.00 0.00 0.00 78 1006.3
20260506004016 13 0.0 0.0 0.00 0.00 0.00 76 1006.2
20260506003018 14 270 1.6 3.2 0.00 0.00 0.00 74 1005.9
20260506001017 14 270 4.8 9.7 0.00 0.00 0.00 76 1005.8
20260506000016 13 270 4.8 9.7 0.00 0.00 0.00 77 1005.6
20260505234016 13 338 3.2 4.8 0.00 0.00 0.00 77 1005.4
20260505233016 13 315 1.6 6.4 0.00 0.00 0.00 77 1005.4
20260505232016 13 315 1.6 3.2 0.00 0.00 0.00 77 1005.3
20260505231016 12 315 3.2 6.4 0.00 0.00 0.00 78 1005.2
20260505230017 12 293 3.2 4.8 0.00 0.00 0.00 77 1005.1
20260505225016 12 293 3.2 6.4 0.00 0.00 0.00 76 1004.9
20260505224016 12 293 3.2 6.4 0.00 0.00 0.00 75 1004.7
20260505223016 12 248 1.6 4.8 0.00 0.00 0.00 74 1004.5
20260505222016 12 338 1.6 4.8 0.00 0.00 0.00 73 1004.3
20260505221016 12 338 3.2 6.4 0.00 0.00 0.00 72 1004.3
20260505220016 12 338 1.6 4.8 0.00 0.00 0.00 71 1004.3
20260505215016 13 0 1.6 4.8 0.00 0.00 0.00 70 1004.2
20260505214016 13 338 3.2 4.8 0.00 0.00 0.00 68 1004.1
20260505213016 14 0 1.6 4.8 0.00 0.00 0.00 66 1004.1
20260505212038 15 68 1.6 4.8 0.00 0.00 0.00 64 1003.9
20260505211019 15 90 3.2 8.0 0.00 0.00 0.00 63 1003.9
20260505210016 15 90 3.2 8.0 0.00 0.00 0.00 62 1003.9
20260505205016 15 90 4.8 9.7 0.00 0.00 0.00 61 1003.7
20260505203056 16 90 3.2 9.7 0.00 0.00 0.00 59 1003.6
20260505202016 16 135 4.8 14.5 0.00 0.00 0.00 58 1003.4
20260505201016 16 113 6.4 11.3 0.00 0.00 0.00 57 1003.4
20260505200016 17 113 8.0 17.7 0.00 0.00 0.00 56 1003.3
20260505195016 17 113 8.0 12.9 0.00 0.00 0.00 55 1003.3
20260505194016 17 135 9.7 16.1 0.00 0.00 0.00 54 1003.2
20260505193018 17 113 11.3 20.9 0.00 0.00 0.00 53 1003.3
20260505192016 18 135 9.7 20.9 0.00 0.00 0.00 53 1003.2